Torna al catalogo

STARLINK-5522

AttivoComunicazioniVLEO
NORAD 56498·PAYLOAD·🇺🇸 United States

Lanciato May 10, 2023 da Vandenberg Space Force Base

Loading…

Prossimi Passaggi (prossime 24 ore)

TLE

AggiornatoSource: CelesTrak SupGP

Epoca: Sep 14, 2026, 14:09 UTC

1 56498C 23064BC  26257.59006944 -.00018470  00000+0 -15476-2 0  2579
2 56498  70.0020 348.1216 0003470 271.0111 290.2540 14.98346794    13

Traccia STARLINK-5522 in tempo reale con AllMySat

Download on the App Store